These data are preliminary and have not undergone final quality control by the National Climatic Data Center (NCDC). Therefore, these data are subject to revision. Final and certified climate data can be accessed at the NCDC - http://www.ncdc.noaa.gov.

Regional Weather Roundup


373
ASUS46 KPQR 030410
RWROR

OREGON REGIONAL WEATHER ROUNDUP
NATIONAL WEATHER SERVICE PORTLAND OR
900 PM PDT MON AUG 02 2021

NOTE: "FAIR" INDICATES FEW OR NO CLOUDS BELOW 12,000 FEET WITH
NO SIGNIFICANT WEATHER AND/OR OBSTRUCTIONS TO VISIBILITY.

ORZ001>013-030500-
NORTHWEST OREGON


CITY           SKY/WX    TMP DP  RH WIND       PRES   REMARKS
ASTORIA        CLEAR     59  53  80 NW17G24   30.10R
TILLAMOOK      CLEAR     57  52  82 S3        30.12S
NEWPORT        CLEAR     52  50  93 NW7       30.16S FOG
FLORENCE       FAIR      57  52  84 NW8       30.12R
PORTLAND       PTCLDY    81  62  52 N7        30.00R
VANCOUVER WA   CLEAR     81  58  45 NW7       29.99R
SCAPPOOSE      CLEAR     82  60  47 NW8       29.99R
HILLSBORO      CLEAR     79  63  57 NW12      30.00R
AURORA         CLEAR     84  63  49 NE3       30.01R
MCMINNVILLE    CLEAR     72  57  59 W5        30.00R
SALEM          CLEAR     80  57  45 W7        30.00R
CORVALLIS      CLEAR     70  56  61 NW16G26   30.02S
EUGENE         MOCLDY    80  62  54 SW7       30.03R
CRESWELL       CLEAR     82  61  47 SW5       30.02R

ORZ021-028-030500- SOUTHWEST OREGON CITY SKY/WX TMP DP RH WIND PRES REMARKS NORTH BEND CLOUDY 59 54 83 N7 30.17S BROOKINGS CLEAR 55 52 89 CALM 30.12S ROSEBURG CLEAR 80 51 36 N6 30.04R SEXTON SUMMIT PTCLDY 72 47 40 VRB6 30.20R GRANTS PASS FAIR 86 48 26 NW5 30.06R MEDFORD CLEAR 90 51 26 NW7 30.01R
ORZ014>016-041-030500- COLUMBIA GORGE CITY SKY/WX TMP DP RH WIND PRES REMARKS TROUTDALE CLEAR 82 62 50 W5 29.99R HOOD RIVER PTCLDY 81 66 61 CALM 29.97R THE DALLES PTCLDY 94 60 32 NE6 29.93R HX 94
ORZ029>031-041-044-049-050-061>064-502-503-505>511-030500- EASTERN OREGON CITY SKY/WX TMP DP RH WIND PRES REMARKS MADRAS PTCLDY 84 43 23 E7 30.12R REDMOND CLEAR 78 48 34 SE6 30.15R BEND CLEAR 75 50 41 SE3 30.19R PRINEVILLE CLEAR 75 50 41 SE7 30.17R KLAMATH FALLS MOCLDY 72 37 28 CALM 30.19R LAKEVIEW PTCLDY 77 33 20 SW9 30.25R HERMISTON MOCLDY 86 58 38 NE8 29.97S PENDLETON CLOUDY 85 52 32 NE5 30.04S JOHN DAY MOCLDY 78 47 33 E7 30.22F MEACHAM MOCLDY 72 53 51 CALM 30.22R LA GRANDE MOCLDY 84 53 34 NW6 30.14R BAKER CITY MOCLDY 76 53 44 NE5 30.19R BURNS LGT RAIN 75 49 39 N12G21 30.29R ROME N/A 86 39 19 MISG 30.18R ONTARIO PTCLDY 88 51 28 NW12G21 30.10R
OTHER REGIONAL REPORTS CITY SKY/WX TMP DP RH WIND PRES REMARKS SEATTLE PTCLDY 76 47 35 N10 30.07R SPOKANE CLOUDY 82 53 36 SW3 30.10R SMOKE VANCOUVER BC PTCLDY 70 64 83 S5 30.06S PRINCE GEORGE CLEAR 73 64 73 N3 30.04R HAZE DAWSON CREEK CLEAR 70 66 88 SW3 30.03F FOG WHITEHORSE LGT RAIN 59 55 88 S12 30.02R BOISE CLEAR 84 57 39 N5 30.12R REDDING CLEAR 86 38 18 SE5 29.96R SAN FRANCISCO PTCLDY 60 53 77 W22 30.03S